User: anonymous   Login
Location: Unspecified
(0.0000°N, 0.0000°E)
Time: 00:34:55
(UTC+00:00)
Language:

Tiangong 2 - Orbit

View from above orbital plane
View from above orbital plane
View from above satellite
View from above satellite

Ground track
Ground track

The orbit data is extracted from the following two-line orbital elements,

1 41765U 16057A   19110.75481071  .00004006  00000-0  50266-4 0  9990
2 41765  42.7837 309.4488 0008380 236.9993 238.6571 15.61286189148060
Epoch (UTC): 20 April 2019 18:06:55
Eccentricity: 0.0008380
inclination: 42.7837°
perigee height: 378 km
apogee height: 389 km
right ascension of ascending node: 309.4488°
argument of perigee: 236.9993°
revolutions per day: 15.61286189
mean anomaly at epoch: 238.6571°
orbit number at epoch: 14806

The dashed part of the orbit path shows where the satellite is in the earth's shadow,  

DLR